Domov               UVHVVR             MKGP            O straneh              
ZDRAVSTVENO VARSTVO RASTLIN
  MREŽA AGROMET. POSTAJ
 ► PROGNOSTIČNA OBVESTILA
AGROMETEOROLOŠKI PODATKI -
ARSO
OBVLADOVANJE TVEGANJ ZARADI
NEUGODNIH VREMENSKIH RAZMER
  ► NARAVNE NESREČE
  ► SUŠA/MOČA
  ► NAMAKANJE
  ► ŽLED (gozdarstvo)
KARTOGRAFSKI PRIKAZI
SPLETNE POVEZAVE
PROJEKTI IN PUBLIKACIJE

AGROMETEOROLOŠKA MREŽA: VREMENSKE POSTAJE IN FENOLOŠKA OPAZOVANJA

Pregled podatkov za lokacijo Šentilj, meteorološka postaja 24379

Pregled senzorjev na lokaciji

ID Ime Zadnja
vrednost
Datum
zadnje
spremembe
Tip
senzorja
904 Omočenost lista (U) 4 U 11.12.2017 10:00 A730WET
905 Temperatura 2 m (°C) 6,72 °C 11.12.2017 10:00 Generic -40 - +60 °C
906 Relativna vlaga 2 m (% RH) 82,78 % RH 11.12.2017 10:00 Generic 0 - 100 %
3858 Padavine (mm) 0 mm 11.12.2017 10:00 Generic 0.2 mm

Pregled podatkov zadnjih 24 ur

Zap.
št.
Datum in čas Šentilj
Omočenost
lista
Padavine Relativna
vlaga
2
m
Temperatura
2
m
0 11.12.2017 10:00 4 0 82,78 6,72
1 11.12.2017 09:30 1 0 83,59 6,4
2 11.12.2017 09:00 2 0 84,74 6,01
3 11.12.2017 08:30 10 0 88,99 5,2
4 11.12.2017 08:00 10 0 91,62 4,54
5 11.12.2017 07:30 10 0 94,24 3,79
6 11.12.2017 07:00 10 0 94,6 3,71
7 11.12.2017 06:30 10 0 96,26 2,98
8 11.12.2017 06:00 10 0 94,53 2,98
9 11.12.2017 05:30 2 0 91,58 3,27
10 11.12.2017 05:00 0 0 90,82 3,22
11 11.12.2017 04:30 0 0 90,62 3,13
12 11.12.2017 04:00 0 0 91,28 2,88
13 11.12.2017 03:30 0 0 90,74 2,71
14 11.12.2017 03:00 0 0 91,09 2,47
15 11.12.2017 02:30 1 0 90,28 2,54
16 11.12.2017 02:00 2 0 90,74 2,44
17 11.12.2017 01:30 1 0 90,28 2,52
18 11.12.2017 01:00 0 0 88,99 2,64
19 11.12.2017 00:30 0 0 88,74 2,37
20 11.12.2017 00:00 0 0 87,08 2,39
21 10.12.2017 23:30 0 0 84,96 2,32
22 10.12.2017 23:00 0 0 84,15 2,17
23 10.12.2017 22:30 0 0 85,1 1,88
24 10.12.2017 22:00 0 0 80,83 2,34
25 10.12.2017 21:30 0 0 83,42 1,78
26 10.12.2017 21:00 0 0 82,15 1,76
27 10.12.2017 20:30 0 0 79,46 1,95
28 10.12.2017 20:00 0 0 77,88 2,03
29 10.12.2017 19:30 0 0 79,02 1,47
30 10.12.2017 19:00 0 0 78,19 1,59
31 10.12.2017 18:30 0 0 78,27 1,73
32 10.12.2017 18:00 0 0 76,7 1,9
33 10.12.2017 17:30 0 0 74,95 1,98
34 10.12.2017 17:00 0 0 74,46 1,88
35 10.12.2017 16:30 0 0 71,89 1,95
36 10.12.2017 16:00 0,2 68,11 2,15
37 10.12.2017 15:30 0,2 67,42 2,08
38 10.12.2017 15:00 0,2 73,89 1,07
39 10.12.2017 14:30 0 0 71,72 1,03
40 10.12.2017 14:00 0 0 80,9 -0,07
41 10.12.2017 13:30 0 0 81,32 -0,59
42 10.12.2017 13:00 0 0 79,02 -0,29
43 10.12.2017 12:30 0 0 80,61 -0,46
44 10.12.2017 12:00 0 0 79,8 -0,61
45 10.12.2017 11:30 0 0 79,78 -1,47
46 10.12.2017 11:00 0 0 80,93 -2,88
47 10.12.2017 10:30 0 0 81,44 -3,81
© 2011 Ministrstvo za kmetijstvo, gozdarstvo in prehrano. Vse pravice pridržane.